Retour au catalogue

STARLINK-32485

ActifCommunicationsVLEO
NORAD 62143·PAYLOAD·🇺🇸 United States

Lancé Nov 30, 2024 depuis Cape Canaveral Space Force Station

Loading…

Prochains Passages (prochaines 24 heures)

TLE

FraisSource: CelesTrak SupGP

Époque: Sep 15, 2026, 01:53 UTC

1 62143C 24224E   26258.07895833  .00030164  00000+0  10920-2 0  2581
2 62143  42.9993 171.7134 0001345 273.6148 239.7773 15.27578611    14

Suivez STARLINK-32485 en temps réel avec AllMySat

Download on the App Store